Kremmling, CO

2:05 AM MST on December 11, 2019 (GMT -0700)
Kremmling

Weather History for K20V - November, 2019

Change the Weather History Date:

Tuesday, November 12, 2019

  Actual Average Record
Temperature  
Mean Temperature 26 °F -  
Max Temperature 45 °F - 64 °F (2016)
Min Temperature 6 °F - -2 °F (2014)
Degree Days  
Heating Degree Days 40    
Month to date heating degree days 416  
Cooling Degree Days 0    
Month to date cooling degree days 0  
Moisture  
Dew Point 12 °F    
Average Humidity 65    
Maximum Humidity 96    
Minimum Humidity 27    
Precipitation  
Precipitation 0.00 in - 0.17 in (2005)
Snow  
Snow 0.00 in - - ()
Snow Depth 0.00 in    
Sea Level Pressure  
Sea Level Pressure 30.32 in    
Wind  
Wind Speed 1 mph ()    
Max Wind Speed 8 mph    
Max Gust Speed -    
Visibility 10.0 miles    
Events      
T = Trace of Precipitation, MM = Missing Value Source: Averaged Metar Reports

Daily Weather History Graph

Daily Weather History Graph

Search for Another Location

Airport or City:

Astronomy

Nov. 12, 2019 Rise Set
Actual Time 6:47 AM MST 4:51 PM MST
Civil Twilight 6:18 AM MST 5:20 PM MST
Nautical Twilight 5:45 AM MST 5:53 PM MST
Astronomical Twilight 5:13 AM MST 6:24 PM MST
Moon 5:20 PM MST (11/12) 6:41 AM MST (11/12)
Length of Visible Light 11h 02m
Length of Day
10h 04m
Full, 100% of the Moon is Illuminated
Nov 12
Full
Nov 19
Last Quarter
Nov 26
New
Dec 3
First Quarter
Dec 11
Full

Hourly Weather History & Observations

Time (MST) Temp. Windchill Dew Point Humidity Pressure Visibility Wind Dir Wind Speed Gust Speed Precip Events Conditions
12:12 AM 14.0 °F - 12.2 °F 93% 30.46 in 10.0 mi Calm Calm - N/A   Clear
12:30 AM 14.0 °F - 12.2 °F 93% 30.46 in 10.0 mi Calm Calm - N/A   Clear
12:48 AM 14.0 °F - 12.2 °F 93% 30.46 in 10.0 mi Calm Calm - N/A   Clear
1:30 AM 12.2 °F - 10.4 °F 92% 30.46 in 10.0 mi Calm Calm - N/A   Clear
1:48 AM 12.2 °F - 10.4 °F 92% 30.46 in 10.0 mi Calm Calm - N/A   Clear
2:12 AM 12.2 °F - 8.6 °F 85% 30.47 in 10.0 mi Calm Calm - N/A   Clear
2:30 AM 12.2 °F - 8.6 °F 85% 30.47 in 10.0 mi Calm Calm - N/A   Clear
2:48 AM 12.2 °F - 8.6 °F 85% 30.46 in 10.0 mi Calm Calm - N/A   Clear
3:11 AM 12.2 °F - 10.4 °F 92% 30.45 in 10.0 mi Calm Calm - N/A   Clear
3:29 AM 10.4 °F - 8.6 °F 92% 30.45 in 10.0 mi Calm Calm - N/A   Clear
3:47 AM 10.4 °F - 8.6 °F 92% 30.45 in 10.0 mi Calm Calm - N/A   Clear
4:12 AM 10.4 °F - 8.6 °F 92% 30.45 in 10.0 mi Calm Calm - N/A   Clear
4:52 AM 10.4 °F - 8.6 °F 92% 30.45 in 10.0 mi Calm Calm - N/A   Clear
5:12 AM 8.6 °F - 6.8 °F 92% 30.45 in 10.0 mi Calm Calm - N/A   Clear
5:30 AM 8.6 °F - 6.8 °F 92% 30.44 in 10.0 mi Calm Calm - N/A   Clear
5:53 AM 8.6 °F - 6.8 °F 92% 30.44 in 10.0 mi Calm Calm - N/A   Clear
6:12 AM 8.6 °F - 6.8 °F 92% 30.44 in 10.0 mi Calm Calm - N/A   Clear
6:30 AM 8.6 °F - 6.8 °F 92% 30.44 in 10.0 mi Calm Calm - N/A   Clear
6:53 AM 6.8 °F - 3.2 °F 85% 30.45 in 7.0 mi Calm Calm - N/A   Clear
7:12 AM 8.6 °F - 6.8 °F 92% 30.44 in 10.0 mi Calm Calm - N/A   Clear
7:48 AM 12.2 °F - 8.6 °F 85% 30.46 in 10.0 mi Calm Calm - N/A   Clear
8:12 AM 14.0 °F - 10.4 °F 86% 30.47 in 10.0 mi Calm Calm - N/A   Clear
8:29 AM 14.0 °F - 12.2 °F 93% 30.47 in 10.0 mi Calm Calm - N/A   Clear
8:53 AM 17.6 °F - 12.2 °F 79% 30.46 in 10.0 mi Calm Calm - N/A   Clear
9:12 AM 19.4 °F - 14.0 °F 80% 30.45 in 10.0 mi Calm Calm - N/A   Clear
9:48 AM 21.2 °F - 14.0 °F 74% 30.43 in 10.0 mi Calm Calm - N/A   Clear
10:48 AM 28.4 °F - 14.0 °F 55% 30.41 in 10.0 mi Calm Calm - N/A   Clear
11:12 AM 30.2 °F - 14.0 °F 51% 30.39 in 10.0 mi Calm Calm - N/A   Clear
11:29 AM 30.2 °F - 14.0 °F 51% 30.37 in 10.0 mi Calm Calm - N/A   Clear
11:53 AM 32.0 °F - 15.8 °F 51% 30.36 in 10.0 mi Calm Calm - N/A   Clear
12:12 PM 33.8 °F - 14.0 °F 44% 30.34 in 10.0 mi Calm Calm - N/A   Clear
12:30 PM 35.6 °F - 14.0 °F 41% 30.32 in 10.0 mi Calm Calm - N/A   Clear
12:48 PM 35.6 °F - 12.2 °F 38% 30.31 in 10.0 mi Calm Calm - N/A   Clear
1:12 PM 37.4 °F 34.9 °F 12.2 °F 36% 30.29 in 10.0 mi West 3.5 mph - N/A   Clear
1:30 PM 39.2 °F - 14.0 °F 36% 30.28 in 10.0 mi Calm Calm - N/A   Clear
1:48 PM 39.2 °F 37.0 °F 12.2 °F 33% 30.26 in 10.0 mi East 3.5 mph - N/A   Clear
2:12 PM 42.8 °F 41.1 °F 12.2 °F 29% 30.25 in 10.0 mi ESE 3.5 mph - N/A   Clear
2:30 PM 42.8 °F 39.3 °F 12.2 °F 29% 30.24 in 10.0 mi SE 5.8 mph - N/A   Clear
2:48 PM 44.6 °F 41.4 °F 12.2 °F 27% 30.22 in 10.0 mi SE 5.8 mph - N/A   Clear
3:12 PM 44.6 °F 42.2 °F 14.0 °F 29% 30.21 in 10.0 mi ESE 4.6 mph - N/A   Clear
3:30 PM 44.6 °F 43.1 °F 12.2 °F 27% 30.21 in 10.0 mi ESE 3.5 mph - N/A   Clear
3:48 PM 44.6 °F 40.7 °F 14.0 °F 29% 30.20 in 10.0 mi ESE 6.9 mph - N/A   Clear
4:12 PM 42.8 °F 41.1 °F 10.4 °F 27% 30.20 in 10.0 mi NE 3.5 mph - N/A   Clear
4:30 PM 41.0 °F - 12.2 °F 31% 30.21 in 10.0 mi Calm Calm - N/A   Clear
4:48 PM 35.6 °F 32.8 °F 12.2 °F 38% 30.21 in 10.0 mi SE 3.5 mph - N/A   Clear
5:12 PM 35.6 °F - 14.0 °F 41% 30.21 in 10.0 mi Calm Calm - N/A   Clear
5:30 PM 33.8 °F 30.8 °F 14.0 °F 44% 30.21 in 10.0 mi NNE 3.5 mph - N/A   Clear
5:48 PM 30.2 °F - 14.0 °F 51% 30.21 in 10.0 mi Calm Calm - N/A   Clear
6:12 PM 32.0 °F - 14.0 °F 48% 30.20 in 10.0 mi Calm Calm - N/A   Clear
6:30 PM 32.0 °F 27.5 °F 14.0 °F 48% 30.20 in 10.0 mi NNW 4.6 mph - N/A   Clear
6:48 PM 30.2 °F - 14.0 °F 51% 30.19 in 10.0 mi Calm Calm - N/A   Clear
7:12 PM 28.4 °F - 15.8 °F 59% 30.20 in 10.0 mi Calm Calm - N/A   Clear
7:48 PM 30.2 °F - 14.0 °F 51% 30.18 in 10.0 mi Calm Calm - N/A   Clear
8:12 PM 26.6 °F 19.1 °F 17.6 °F 69% 30.17 in 10.0 mi East 6.9 mph - N/A   Clear
8:30 PM 28.4 °F 22.2 °F 15.8 °F 59% 30.18 in 10.0 mi ESE 5.8 mph - N/A   Clear
8:48 PM 30.2 °F - 14.0 °F 51% 30.18 in 10.0 mi Calm Calm - N/A   Clear
9:12 PM 24.8 °F - 14.0 °F 64% 30.17 in 10.0 mi Calm Calm - N/A   Clear
9:30 PM 24.8 °F - 15.8 °F 69% 30.17 in 10.0 mi Calm Calm - N/A   Clear
10:12 PM 23.0 °F 18.4 °F 15.8 °F 74% 30.17 in 10.0 mi SE 3.5 mph - N/A   Clear
10:30 PM 21.2 °F - 15.8 °F 80% 30.16 in 10.0 mi Calm Calm - N/A   Clear
10:48 PM 23.0 °F - 15.8 °F 74% 30.16 in 10.0 mi Calm Calm - N/A   Clear
11:12 PM 24.8 °F 17.9 °F 14.0 °F 64% 30.14 in 10.0 mi NE 5.8 mph - N/A   Clear
11:30 PM 24.8 °F 16.1 °F 14.0 °F 64% 30.14 in 10.0 mi East 8.1 mph - N/A   Clear
11:53 PM 23.0 °F 15.8 °F 14.0 °F 68% 30.14 in 10.0 mi SE 5.8 mph - N/A   Clear